Location: Rochester
(43.1610°N, 77.6109°W)
Time: 09:57:13
(UTC-05:00)

CUTE 1.7 + AOD 2 - Pass Details

Date: 22 October 2021
Orbit: 592 x 611 km, 97.6° (Epoch: 05 December)

Event Time Altitude Azimuth Distance (km) Brightness Sun altitude
Rises 05:09:35 0° 16° (NNE) 2,885 ? -26.8°
Reaches altitude 10° 05:11:48 10° 20° (NNE) 1,975 ? -26.4°
Maximum altitude 05:16:03 59° 100° (E) 708 ? -25.6°
Enters shadow 05:17:23 39° 160° (SSE) 917 ? -25.4°
